{"data":{"norad_id":45564,"epoch":"2026-05-25T02:32:08.020032Z","epoch_age_seconds":59935,"freshness":"FRESH","line1":"1 45564U 20025AK  26145.10564838  .00059085  00000+0  83700-3 0  9993","line2":"2 45564  53.0452  66.7872 0002655  62.5672 297.5608 15.55933002337404","mean_motion":15.55933002,"eccentricity":0.0002655,"inclination_deg":53.0452,"raan_deg":66.7872,"arg_perigee_deg":62.5672,"mean_anomaly_deg":297.5608,"bstar":0.000837,"rev_number":33740,"period_min":92.54897210542,"perigee_km":397.64241585733,"apogee_km":401.24131023361,"semimajor_km":6777.5788630455,"source":"CELESTRAK","updated_at":"2026-05-25T13:38:16.422790Z"}}